Theta_e
314 314 312 312 313 312 312 311 311 311 310 308 307 307 306 306 305 305 305 305 305 305 305 306 306 307 307 307 308 308 308 309 310 312 316 316 313 311 312 313 313 314 313 313 312 313 313 313 313 312 315 314 313 315 314 312 312 316 320 317 314 316 317 317 317 315 316 316 313 311 311 314 314 311 310 311 311 313 312 312 313 312 312 312 312 311 310 320
314 313 312 313 313 312 311 311 311 310 309 307 307 307 306 305 305 305 305 305 305 305 305 306 306 306 307 307 308 308 309 311 310 312 317 315 311 312 313 313 313 313 313 313 312 313 313 313 312 312 314 314 312 314 315 312 313 316 318 315 315 319 316 315 316 314 314 315 314 312 310 312 313 313 311 313 314 313 313 314 313 312 314 313 312 312 313 321
313 312 312 313 312 312 311 311 310 309 308 307 306 306 305 305 305 304 304 304 305 305 305 306 306 306 307 307 308 308 309 311 309 312 316 313 311 312 312 313 313 313 314 314 313 313 313 313 312 312 314 313 311 314 315 313 313 314 315 315 315 318 315 312 313 312 311 312 314 312 309 311 312 312 311 313 314 313 314 314 314 314 315 315 314 315 316 321
312 312 312 312 312 312 311 310 309 308 308 307 306 306 305 305 304 304 304 304 305 305 305 306 306 306 307 307 308 308 309 311 310 313 316 313 311 312 312 312 312 312 313 313 313 313 312 312 312 313 314 313 312 313 314 312 313 313 313 315 313 313 314 312 310 310 309 309 313 312 310 311 311 310 312 313 314 314 315 315 315 315 315 315 316 317 319 322
312 312 311 311 311 311 311 311 309 308 310 309 308 306 305 305 304 305 304 305 305 305 306 306 306 306 307 307 308 309 309 310 310 313 316 312 311 312 312 312 312 313 312 312 313 312 312 312 313 314 314 313 314 314 313 310 311 313 312 312 311 311 314 311 308 309 308 308 311 312 312 312 310 310 312 313 315 315 315 315 315 314 315 314 316 318 320 322
312 311 311 311 311 311 311 311 310 309 311 310 308 306 305 305 304 305 305 305 305 305 306 306 306 307 307 308 308 309 310 310 310 314 314 312 312 312 312 312 313 314 313 313 312 312 313 313 314 315 314 313 314 313 313 309 309 314 312 309 309 309 312 310 307 308 307 309 312 312 312 311 311 312 311 311 314 315 312 312 313 313 311 311 315 319 319 321
311 311 311 310 311 311 310 311 309 310 311 309 308 307 305 305 304 305 305 306 306 306 306 306 307 306 308 309 308 310 313 311 310 313 313 311 312 312 313 314 314 314 313 313 312 313 314 313 314 314 314 313 313 313 312 310 310 314 314 311 309 308 309 309 307 307 306 309 311 309 311 311 313 313 309 309 314 313 310 309 310 311 308 309 314 317 319 322
311 310 310 310 310 310 310 310 309 310 311 309 308 308 307 305 305 305 305 306 307 307 306 306 307 307 309 310 310 312 311 313 313 313 312 312 312 312 314 314 315 314 313 313 312 313 314 313 313 312 314 313 312 313 311 311 312 314 314 311 310 308 309 307 305 306 306 308 308 308 311 312 311 310 309 311 313 313 312 310 310 310 309 309 312 316 320 322
311 309 309 309 309 310 310 310 310 310 310 310 309 308 308 306 305 305 305 306 307 308 307 307 307 308 310 310 312 311 309 313 314 312 312 312 312 312 313 314 315 314 313 312 311 313 314 313 312 312 313 312 312 313 311 313 314 313 313 312 311 311 310 307 307 307 307 308 308 311 313 311 309 308 311 313 313 313 311 311 311 311 311 311 312 314 319 321
310 309 309 309 309 309 309 309 310 311 310 310 310 309 308 306 305 305 305 306 307 309 308 308 308 309 309 309 312 310 311 315 315 312 312 312 312 312 314 315 314 314 313 312 311 312 313 313 312 312 313 312 312 312 311 313 313 311 311 312 312 312 310 308 310 309 308 309 308 312 313 311 309 309 313 315 311 310 310 311 311 311 312 312 313 314 317 319
310 309 309 309 308 308 309 309 309 310 310 310 310 310 308 306 306 305 305 306 307 309 309 309 309 309 308 309 310 310 313 317 315 312 312 312 312 312 315 315 314 314 313 313 312 311 311 311 310 311 314 313 312 312 311 311 311 310 311 313 313 312 311 310 312 310 310 311 309 311 313 311 310 310 315 314 308 309 311 312 312 312 313 313 313 313 315 316
310 310 309 309 308 308 308 309 309 309 309 309 310 309 307 306 306 305 305 306 307 309 309 309 310 310 309 309 309 313 315 316 314 312 311 312 312 313 315 315 315 314 313 313 312 311 311 310 311 312 313 312 313 313 311 309 309 310 311 315 315 314 314 312 312 310 311 313 308 310 313 313 313 313 315 313 308 309 311 312 312 312 313 313 313 312 314 315
311 311 310 310 309 309 309 309 309 310 310 310 311 308 306 306 306 306 305 306 307 309 309 310 311 310 308 308 311 315 317 315 313 312 311 312 313 314 315 315 315 314 314 314 311 311 311 311 312 312 311 312 313 312 311 309 310 312 312 315 316 315 315 312 311 310 312 312 308 310 313 315 317 315 315 311 308 310 311 313 313 313 313 313 313 312 313 314
310 311 311 311 310 310 310 310 310 311 310 310 309 307 306 307 306 306 305 306 307 308 310 311 310 309 308 309 312 316 317 314 313 312 312 313 313 314 314 315 315 314 314 313 312 311 311 312 313 312 310 311 311 310 312 312 312 313 313 314 316 313 313 313 310 311 314 311 308 312 313 314 318 316 314 309 307 309 311 314 314 313 313 312 313 312 312 314
310 310 311 311 311 310 310 310 310 311 311 310 309 307 307 307 307 306 306 306 307 309 310 311 309 308 308 308 311 314 315 314 313 311 312 312 313 314 313 314 314 313 314 313 312 311 312 313 313 312 311 309 311 313 315 315 314 313 311 313 315 312 313 315 310 310 314 310 309 313 314 315 317 316 312 307 306 309 311 313 314 313 312 312 312 312 312 313
311 310 310 311 311 310 310 309 310 310 310 309 308 308 307 307 307 307 307 307 309 310 310 311 309 308 307 308 311 312 313 315 313 312 312 312 313 314 313 313 313 313 313 313 313 312 313 313 311 311 311 311 314 316 315 314 314 314 312 312 315 313 313 314 310 308 310 311 311 312 314 315 316 315 311 307 307 309 311 313 314 313 312 312 312 311 312 312
312 311 310 311 311 310 310 310 309 309 309 309 309 310 309 309 309 309 310 310 311 312 311 310 308 308 308 309 311 311 312 314 313 312 312 312 313 314 313 313 312 312 313 313 313 314 314 312 310 311 313 313 314 316 313 311 312 314 314 313 314 314 312 312 312 309 308 310 313 313 313 315 316 315 313 311 309 310 311 313 313 314 313 312 312 311 311 311
313 312 311 311 311 311 311 310 309 309 309 309 310 312 312 311 311 311 312 311 311 310 310 309 307 308 308 307 311 312 312 314 313 312 312 312 313 313 314 312 311 313 315 314 314 314 314 313 313 315 315 313 314 315 311 310 311 312 314 314 313 313 312 313 314 311 309 311 313 314 314 315 315 315 315 314 312 310 312 312 313 314 313 313 312 311 311 311
313 313 313 312 312 311 311 311 310 310 310 310 312 313 313 313 313 312 312 310 309 308 309 310 308 309 310 309 312 313 313 313 312 312 312 312 312 313 313 313 314 314 313 314 314 313 314 315 315 316 316 315 316 315 312 312 313 313 315 314 313 313 312 314 314 310 310 312 314 314 315 315 316 316 316 315 314 311 312 312 312 313 312 312 312 312 312 312
314 313 313 313 312 312 311 311 310 310 310 312 313 312 312 313 312 311 311 310 309 309 311 312 309 310 312 311 313 313 312 312 313 312 311 311 312 313 312 312 315 315 312 316 316 312 313 316 317 316 316 316 316 315 312 312 313 315 316 314 315 315 312 314 314 309 308 312 315 315 315 316 316 316 316 315 314 312 312 312 312 313 313 313 313 313 313 313
314 314 313 313 313 312 311 311 310 310 310 313 312 309 310 311 310 308 309 310 309 308 311 312 310 311 312 312 313 313 313 314 313 313 312 311 312 313 311 312 314 313 313 316 315 311 313 315 316 316 315 314 314 312 312 312 313 315 314 314 316 315 314 315 313 309 308 312 315 315 315 315 315 315 315 315 314 314 314 314 314 314 314 314 314 314 314 314
314 314 313 313 313 313 312 311 310 309 310 313 311 308 309 309 308 308 309 310 311 308 311 311 309 311 311 311 312 312 313 314 314 314 312 311 312 312 311 312 312 313 313 313 314 314 315 315 315 313 311 311 311 310 311 313 314 314 315 315 314 315 315 313 311 310 309 311 315 314 314 314 315 315 315 315 315 315 315 314 315 315 315 315 315 315 315 315
315 314 314 313 313 313 312 311 310 309 310 313 311 308 310 310 309 309 309 310 311 309 310 311 310 312 311 311 312 312 313 313 313 314 312 311 312 311 312 313 312 314 313 313 314 315 314 314 313 311 310 311 311 310 312 314 314 315 316 314 314 317 315 310 311 311 309 310 313 313 314 315 315 314 315 315 314 315 315 314 314 314 314 314 315 316 315 315
316 315 314 314 312 313 312 311 310 310 310 311 311 309 310 311 309 310 310 310 309 309 309 310 310 312 312 311 312 313 312 312 312 314 313 311 311 311 312 312 312 313 313 313 314 314 313 312 309 309 311 313 312 311 313 314 315 316 317 316 315 317 315 312 312 313 312 311 311 312 314 315 316 316 316 315 314 313 313 313 314 314 314 313 314 314 314 314
317 316 315 314 312 312 311 311 311 311 311 310 311 310 311 312 310 309 310 309 308 309 308 309 310 312 311 311 312 313 312 312 312 313 313 311 311 311 311 311 311 313 314 313 313 314 313 309 308 310 311 314 314 312 314 315 315 316 316 316 315 315 315 314 314 314 314 313 312 312 312 313 316 316 317 317 315 315 315 314 314 314 315 314 313 313 313 313
318 316 315 314 313 311 310 312 312 310 311 310 310 311 313 312 310 309 308 309 309 310 309 309 311 310 309 312 313 311 310 311 310 311 312 311 311 310 311 310 310 312 313 312 312 313 312 308 310 313 312 314 315 313 315 316 314 314 316 315 314 315 316 316 316 315 314 314 313 312 313 314 315 315 316 317 316 317 317 317 316 316 316 316 315 314 313 312
319 317 316 315 313 312 311 312 311 310 312 310 309 312 313 312 311 310 309 310 310 312 312 309 309 309 309 312 312 309 309 311 310 311 310 311 311 310 311 312 310 311 311 311 312 313 312 311 312 315 314 314 315 314 316 315 313 315 316 314 313 314 316 316 317 316 315 315 314 314 316 316 315 315 316 316 316 316 317 317 317 318 318 317 316 315 314 313
320 318 317 315 313 313 312 310 310 310 311 310 309 312 314 312 311 309 309 311 311 313 312 308 307 308 309 310 309 308 309 310 312 313 309 309 311 310 311 312 311 312 310 311 313 312 312 315 314 315 315 314 316 317 315 314 314 315 312 311 312 314 316 316 316 317 316 316 316 316 317 315 315 316 315 315 317 317 317 318 318 319 319 319 316 315 313 312
320 319 317 315 314 314 312 310 311 310 310 310 310 312 314 311 310 309 309 311 313 311 310 309 309 309 310 309 309 308 308 310 313 312 309 309 310 310 311 311 311 313 310 310 314 313 311 311 312 313 315 315 315 312 311 315 315 312 309 311 313 313 314 315 317 317 316 316 317 318 317 312 313 316 315 315 316 317 318 318 318 319 320 319 317 314 312 309
320 319 318 316 314 313 312 311 311 309 310 310 310 313 313 311 310 308 308 311 314 312 309 309 310 310 311 309 309 309 309 311 311 310 310 311 310 309 309 309 310 313 313 311 314 312 308 306 309 313 314 313 311 307 309 315 314 311 313 315 315 314 314 315 315 315 316 317 317 318 317 313 312 315 317 317 317 317 318 318 318 319 320 320 317 313 310 308
319 319 318 316 315 313 312 313 312 310 310 310 311 312 312 314 314 309 309 311 312 313 310 309 310 311 311 311 310 310 311 312 311 312 312 311 311 310 309 310 311 313 314 313 314 313 310 310 311 312 310 310 311 310 309 310 309 312 317 318 316 315 315 316 316 317 317 317 315 315 316 316 315 314 316 317 316 315 317 317 317 319 321 322 317 311 309 307
319 319 318 316 315 314 314 316 313 310 310 311 312 313 312 314 315 311 310 309 310 314 313 312 312 311 311 312 311 311 312 312 312 313 314 313 313 312 312 313 313 314 314 314 315 314 314 315 313 311 308 310 315 315 311 310 310 314 317 316 315 314 314 316 318 318 317 317 313 310 313 316 316 315 315 316 315 314 315 316 317 320 322 322 318 312 310 308
317 318 318 317 316 314 315 318 314 310 311 312 313 317 315 313 313 312 311 310 312 314 314 313 312 312 311 311 311 311 312 313 312 312 313 314 315 314 314 315 315 315 314 314 315 314 314 315 314 313 311 311 315 315 314 313 313 314 317 316 315 314 315 317 316 314 314 315 311 308 313 316 316 315 316 316 315 315 315 315 316 319 320 319 317 313 310 309
315 317 318 317 316 316 316 318 314 310 311 313 313 315 315 314 314 313 311 312 317 314 313 313 312 311 312 312 313 311 311 312 312 313 313 314 315 315 315 314 314 315 314 313 314 314 314 314 313 314 314 313 315 316 317 317 314 315 318 317 315 314 315 314 313 312 313 314 312 309 313 317 315 315 316 315 316 316 316 315 315 316 316 316 315 312 309 308
313 314 316 316 316 316 316 317 314 311 312 315 315 312 314 316 316 317 313 314 318 315 312 312 312 312 312 314 315 312 311 312 312 314 314 314 315 315 315 314 312 314 314 313 313 313 314 314 314 315 315 314 315 317 318 317 315 315 315 315 315 315 312 311 312 313 313 314 314 312 314 316 315 316 316 315 315 315 314 314 314 314 314 314 315 314 311 310
313 313 315 316 316 315 315 316 314 311 312 315 315 314 316 317 318 320 317 315 317 315 312 312 313 314 313 314 315 313 312 313 313 314 315 315 316 315 316 316 313 312 312 312 314 314 313 313 314 313 313 313 314 316 316 315 314 314 314 315 314 314 313 312 312 311 311 313 315 315 315 315 314 315 316 315 316 315 313 313 313 313 314 314 315 315 314 315
314 312 313 314 315 315 314 315 314 311 312 314 314 314 317 318 320 322 319 315 315 314 314 314 314 315 314 314 315 313 313 314 313 314 315 314 315 315 315 316 314 312 312 312 314 315 313 314 313 312 313 311 309 312 315 314 314 313 314 316 313 312 314 313 313 314 314 316 316 315 315 315 314 316 316 316 316 315 314 314 314 314 315 315 315 315 315 315
313 313 312 313 314 315 314 314 313 312 313 314 314 316 318 318 320 322 318 315 315 315 315 315 315 316 315 314 315 313 313 314 314 314 315 314 314 315 315 315 314 313 312 312 313 314 313 313 313 309 312 311 308 312 314 313 312 312 314 315 314 315 316 314 314 316 317 317 317 316 315 315 315 316 316 316 317 317 316 315 315 315 315 316 316 316 315 316
313 313 314 314 313 315 315 313 313 313 314 314 313 315 317 316 317 319 316 314 315 315 315 315 315 316 315 315 316 314 312 314 314 314 314 314 314 315 314 314 315 313 312 312 311 312 312 312 314 309 309 312 311 313 315 314 312 311 312 313 313 315 317 316 315 315 315 316 316 317 316 316 317 317 316 317 317 317 317 319 319 316 315 317 316 316 319 322
312 314 315 314 313 314 314 313 313 314 313 313 313 313 315 315 315 316 314 313 315 315 315 315 317 316 316 316 315 314 313 314 315 314 314 314 313 314 313 313 316 314 312 312 312 313 312 310 313 312 309 312 314 314 316 316 314 312 313 315 313 313 314 315 315 313 314 316 316 318 319 316 317 318 317 316 317 316 318 321 322 319 316 316 315 317 322 326
312 313 314 314 313 314 314 313 315 314 312 311 312 311 313 314 314 315 314 314 316 317 316 316 318 317 317 316 315 315 314 314 315 315 314 313 313 315 314 313 315 314 312 313 312 313 313 310 312 314 312 314 315 315 315 316 316 315 315 315 315 315 315 316 317 314 314 316 316 317 319 317 317 319 317 316 318 318 318 320 322 321 317 315 315 317 321 324
311 312 313 314 313 313 314 315 316 314 311 310 311 310 311 313 314 315 315 315 316 317 317 318 319 318 318 316 315 316 315 314 315 315 315 315 314 315 315 312 313 313 313 314 314 314 315 313 313 316 316 316 315 311 308 312 316 315 314 315 316 316 316 317 318 317 315 316 315 315 317 318 319 320 318 318 318 317 318 319 319 319 317 316 316 315 315 319
310 311 313 313 313 313 314 316 317 314 310 309 310 310 311 313 314 315 316 315 316 318 320 321 320 318 317 318 317 317 315 316 316 314 315 316 314 315 317 313 312 314 314 314 314 315 315 314 313 315 317 316 313 310 308 309 312 313 314 315 315 315 317 317 317 317 317 317 316 316 318 319 318 316 316 315 314 313 314 315 316 317 317 318 318 314 313 317
310 312 312 313 313 313 315 317 316 314 310 308 309 311 311 312 313 314 316 316 316 318 320 320 320 320 319 319 318 317 316 317 318 315 316 317 315 316 319 316 313 314 314 315 315 314 314 316 316 315 316 316 315 314 313 312 312 313 314 314 315 316 317 317 316 316 317 319 320 319 320 320 317 314 313 312 312 312 312 311 312 314 317 318 317 314 314 315
309 311 312 313 312 312 315 316 316 314 311 309 309 310 311 312 313 314 315 316 316 318 319 319 320 321 320 319 317 317 317 317 319 318 317 318 318 315 316 317 315 314 315 317 316 315 316 317 316 315 316 317 317 318 318 316 313 314 315 315 315 317 316 316 316 316 318 320 320 320 319 319 318 316 315 314 314 316 314 311 309 311 316 317 315 316 315 313
308 308 310 311 311 312 314 315 315 314 313 311 311 310 311 312 313 314 315 316 316 317 318 320 320 319 320 320 319 320 318 317 319 321 318 318 319 317 314 314 315 314 316 319 317 316 320 320 315 315 317 316 318 320 321 319 316 315 317 317 316 317 317 317 317 318 319 319 319 320 319 319 319 318 317 316 317 318 316 315 312 312 316 315 313 314 313 310
308 308 309 310 310 311 313 314 314 314 313 312 312 312 311 311 313 314 314 315 317 317 317 319 319 319 320 320 321 322 321 319 319 320 319 317 319 318 313 312 314 314 316 318 317 317 320 320 316 316 318 317 318 321 321 320 318 317 318 318 316 316 317 318 318 318 319 319 319 320 320 321 319 317 318 318 317 316 315 315 315 314 316 315 313 311 309 307
307 308 308 310 311 311 312 313 314 315 314 313 312 313 312 312 312 314 314 314 315 316 318 318 318 318 319 319 320 321 321 321 320 320 319 318 319 318 315 313 313 313 314 316 315 316 318 318 318 318 318 318 318 319 320 322 321 319 318 318 317 316 317 318 318 318 319 319 320 319 320 321 319 317 318 318 318 317 316 316 316 315 315 315 313 311 311 310
306 306 307 308 310 310 310 312 312 313 314 314 313 313 313 313 313 313 314 314 314 315 317 317 317 317 318 319 320 320 320 321 321 320 319 319 319 319 319 318 315 312 313 315 314 315 317 317 319 320 319 318 318 319 322 323 320 319 318 318 318 317 316 317 317 317 318 319 319 319 320 321 320 318 318 318 319 318 317 317 316 315 316 315 313 312 312 313
305 305 306 306 307 307 308 310 311 311 312 313 313 313 313 313 314 313 313 314 315 315 316 316 316 317 318 318 319 320 319 319 320 320 320 319 319 319 319 320 317 312 312 313 313 313 315 317 321 322 319 319 319 319 322 322 320 319 319 318 318 317 317 317 317 318 318 318 318 319 320 320 319 318 318 318 319 317 317 317 315 315 316 315 315 314 313 313
303 303 305 307 307 307 307 309 310 311 311 311 312 313 313 313 313 313 313 313 314 315 315 316 316 316 317 317 318 319 319 319 320 320 320 320 319 319 318 317 316 314 311 311 314 315 314 316 320 320 319 320 320 320 320 319 318 318 318 318 318 317 317 317 317 317 317 318 319 319 320 319 317 317 318 318 317 316 316 316 316 317 316 316 316 315 314 314
302 302 303 306 307 307 307 308 309 310 311 310 310 311 312 313 313 313 313 313 313 314 314 315 315 316 317 317 317 318 318 319 319 319 320 319 319 320 319 317 317 317 314 311 312 314 314 315 317 318 319 321 321 321 320 318 318 319 319 318 317 317 317 316 316 316 316 317 319 319 319 318 317 317 318 317 316 316 317 317 317 317 317 316 316 315 315 315
Wind_Speed
9 8 7 7 6 6 6 6 7 6 6 6 5 5 5 6 5 5 5 5 5 5 5 5 4 4 4 3 2 2 1 2 4 5 4 4 7 7 6 6 4 3 3 3 6 6 4 3 4 5 4 4 3 1 1 2 2 2 2 2 2 3 3 5 8 5 0 3 8 7 8 8 6 5 2 3 4 2 2 4 4 3 6 5 2 3 6 12
12 9 7 8 7 6 6 6 7 6 6 6 6 5 5 6 5 6 6 6 6 5 5 5 4 4 4 4 3 2 2 3 5 5 4 6 8 7 6 6 5 4 3 3 5 6 3 3 3 3 2 2 1 1 1 2 3 0 1 2 3 2 2 2 5 5 1 1 8 7 5 5 4 6 5 5 5 4 6 6 5 6 8 8 6 5 8 13
14 10 8 8 7 6 6 6 7 7 6 6 5 5 5 5 5 6 5 6 6 5 5 5 5 5 4 4 3 2 3 4 4 3 4 7 8 7 6 6 5 5 3 3 4 4 4 5 5 3 2 2 2 0 1 2 2 0 1 3 2 1 1 1 2 4 1 1 7 8 3 2 2 4 5 5 4 5 9 8 6 8 11 10 10 9 10 13
11 9 8 7 7 6 6 6 7 7 6 5 5 4 5 5 5 5 6 6 6 6 6 6 6 5 4 4 3 2 3 4 3 1 4 8 8 7 6 6 5 4 3 3 4 5 5 6 5 2 2 3 2 1 1 3 1 1 1 2 2 1 1 2 1 2 1 2 3 6 4 4 2 3 4 5 5 6 10 10 9 10 11 8 10 11 12 14
9 8 8 7 7 6 5 5 7 7 6 5 5 5 5 5 5 5 6 6 6 6 6 6 6 5 5 4 4 3 3 4 3 3 6 9 8 7 6 5 4 4 3 2 4 5 5 4 3 2 2 3 1 1 2 3 1 2 1 2 3 0 1 3 0 1 0 1 2 5 5 4 4 3 5 6 9 6 4 6 8 9 4 3 8 12 12 13
10 9 8 8 7 6 5 5 7 7 6 5 5 5 5 5 6 6 6 6 7 7 7 7 6 6 6 4 3 3 3 2 2 4 8 9 9 7 5 5 4 4 2 2 3 4 3 2 2 2 2 2 1 2 2 2 2 0 1 1 1 1 2 3 1 1 2 2 5 5 3 3 4 5 2 7 13 4 4 1 1 3 2 3 6 11 12 13
10 9 8 8 7 6 5 5 7 7 6 6 5 5 6 6 6 6 6 7 7 7 8 7 7 7 6 5 3 2 1 1 1 6 10 10 9 7 6 5 3 3 1 3 3 3 2 2 3 2 3 3 1 3 2 0 1 1 3 3 2 1 2 2 1 2 2 3 3 1 2 4 6 5 2 6 15 6 2 2 2 3 1 1 5 10 12 13
12 10 9 9 7 7 6 4 6 6 6 7 6 6 5 5 6 6 6 7 7 8 8 8 8 7 7 6 3 2 1 1 3 8 11 10 8 6 5 5 3 2 3 4 3 4 3 2 4 3 2 3 2 3 1 1 1 1 4 4 2 1 1 2 1 3 2 2 1 2 4 4 3 1 1 10 14 7 3 2 0 1 1 4 6 9 11 11
14 11 9 9 9 8 6 5 5 5 5 7 7 6 5 5 6 6 6 7 7 7 8 8 7 7 7 4 2 3 2 2 6 10 11 9 7 5 4 4 3 3 5 6 4 4 3 2 3 3 3 4 2 3 1 2 2 2 3 3 3 2 1 2 2 2 1 1 2 5 4 1 1 1 6 12 8 1 1 2 1 1 4 6 7 8 10 10
14 10 9 10 9 7 6 6 5 5 5 6 7 6 5 5 5 6 6 7 7 7 8 8 7 7 6 4 2 4 2 2 8 11 10 9 7 5 5 5 5 5 6 7 5 3 1 4 4 3 5 5 2 2 2 1 2 3 4 4 4 2 2 1 1 2 0 1 1 4 2 1 1 2 7 4 2 2 2 4 2 3 7 7 6 7 7 9
13 12 10 9 8 6 6 6 6 5 5 5 5 5 4 4 4 5 6 7 7 7 7 7 7 6 4 4 3 3 3 4 9 11 11 9 7 6 6 7 6 7 8 8 6 6 5 9 8 3 2 3 4 3 2 1 2 3 3 5 4 2 2 1 0 2 1 1 1 2 2 2 1 4 7 2 3 1 3 4 3 5 7 6 6 5 6 8
13 12 10 8 7 6 6 6 6 6 5 5 4 4 5 4 4 4 6 7 7 7 7 7 7 5 4 2 1 3 4 5 9 11 10 9 8 7 8 7 7 6 7 8 6 7 10 10 8 4 2 4 4 3 4 2 1 2 2 3 3 1 3 1 0 0 2 1 2 1 4 6 7 11 7 4 2 1 1 6 5 6 7 6 6 5 6 8
12 12 9 8 7 7 7 6 6 6 5 5 4 5 6 4 4 5 6 7 7 7 7 7 6 4 3 2 2 5 5 6 9 10 10 10 9 9 9 8 9 8 9 11 8 8 9 6 6 7 3 2 3 2 5 3 1 3 1 1 1 3 3 1 1 0 2 2 1 2 5 4 9 13 5 6 1 1 4 8 6 6 6 5 5 5 7 8
13 12 11 10 7 7 7 6 6 5 5 5 5 6 6 5 5 5 7 8 8 8 7 7 6 4 2 2 3 4 5 6 9 11 11 12 11 12 11 10 11 11 12 14 12 10 9 8 10 9 3 2 4 3 4 3 1 1 1 0 1 3 2 3 1 1 4 2 1 4 6 4 4 6 2 4 1 3 8 10 7 7 5 5 5 6 8 9
13 12 11 11 9 7 7 6 6 5 4 5 6 7 6 6 6 7 8 8 8 8 7 6 5 4 2 2 2 4 5 5 9 12 12 13 12 11 10 12 14 13 14 15 14 12 9 8 7 5 2 1 3 5 3 2 1 2 1 2 1 2 1 3 2 1 2 1 1 5 5 5 6 2 4 3 1 3 8 9 7 7 7 6 6 7 8 8
11 11 11 11 9 8 7 5 5 5 4 5 7 8 7 6 7 8 9 9 9 8 6 5 4 3 2 2 3 3 4 5 8 11 13 12 10 10 13 14 14 13 13 13 12 10 9 8 4 2 2 2 3 4 3 2 1 1 2 1 2 2 1 1 2 0 2 1 3 7 4 3 3 1 2 1 2 2 5 9 9 8 7 7 6 7 7 8
9 9 9 10 8 6 5 4 3 4 5 6 8 8 7 7 8 9 10 10 10 7 5 4 3 2 1 2 2 3 3 4 8 11 12 9 9 14 14 9 8 9 10 9 7 5 6 6 1 1 2 1 1 2 3 2 3 1 1 1 1 2 2 1 2 2 1 2 5 7 7 9 7 3 2 3 3 3 7 10 12 9 7 6 6 7 8 9
10 9 9 10 8 5 3 3 4 5 7 8 8 8 9 9 10 11 11 12 10 7 4 2 2 2 2 3 3 2 4 5 9 9 9 10 12 14 10 6 6 6 7 5 4 3 3 2 1 1 3 1 2 4 4 2 2 3 3 2 1 2 4 4 1 2 2 2 5 7 9 14 14 10 10 8 5 5 10 11 12 11 9 8 6 8 9 9
12 10 10 10 9 6 4 4 4 6 8 9 11 12 12 10 9 8 7 6 5 3 2 3 4 3 2 3 3 5 7 8 9 8 9 11 12 10 8 7 5 4 4 2 1 2 1 1 1 2 4 5 7 7 3 2 3 4 3 2 1 3 5 3 1 1 1 3 7 10 11 14 15 12 13 11 5 6 11 11 11 10 10 9 8 9 9 10
13 12 12 11 10 7 5 4 5 7 9 11 14 13 9 6 5 4 2 2 2 1 1 1 2 2 2 3 5 9 9 8 5 5 9 12 11 10 7 4 3 3 2 2 2 1 2 2 4 5 4 5 7 4 4 5 4 5 3 1 1 3 5 2 3 1 1 4 9 10 11 15 16 13 14 12 6 7 12 13 13 12 10 9 10 12 12 12
14 13 12 12 11 9 6 5 5 7 10 13 14 7 2 4 2 3 3 3 1 1 2 3 2 2 3 4 8 9 5 4 2 3 10 11 10 9 2 1 5 4 0 0 3 1 2 4 6 5 0 2 4 6 6 5 4 3 3 1 1 3 6 1 3 1 2 3 7 6 8 14 15 14 14 13 11 12 14 14 15 14 11 9 12 14 12 10
15 14 13 12 11 10 7 5 5 7 10 12 10 3 2 3 3 4 3 2 2 1 1 2 2 1 3 3 7 6 1 3 3 3 7 8 6 5 3 3 7 5 2 3 3 2 3 6 6 3 6 7 6 5 5 4 3 2 2 1 2 2 5 2 3 2 3 4 6 6 8 12 14 15 16 16 15 14 15 15 16 13 11 12 14 13 11 9
16 15 15 13 11 11 8 5 5 6 9 10 7 4 3 6 7 6 3 1 2 1 2 2 2 3 3 2 6 6 3 3 4 5 8 7 3 2 5 7 6 4 5 7 6 5 4 4 3 6 8 8 5 3 5 4 3 3 3 3 3 0 1 3 1 3 4 3 4 7 10 11 12 14 17 17 14 13 15 15 15 12 13 17 16 11 9 11
17 16 16 14 12 11 9 6 5 6 8 8 8 7 7 9 8 5 2 1 1 1 1 3 2 3 4 3 8 9 2 1 3 6 11 10 5 3 5 5 5 5 6 9 8 7 4 1 3 6 7 7 6 5 7 5 3 3 5 5 4 2 3 4 3 3 3 2 2 7 10 8 8 10 11 8 6 11 13 13 13 13 15 16 15 13 12 12
18 17 17 17 14 11 11 8 6 6 7 7 9 10 11 10 7 4 2 1 2 1 0 2 2 5 6 5 9 7 1 1 2 3 11 10 5 4 3 2 2 6 7 6 4 6 3 3 5 7 5 4 6 6 7 6 4 3 5 9 9 5 3 2 3 5 4 2 1 3 7 4 2 4 6 2 3 9 7 6 12 13 12 12 11 13 12 11
19 18 18 19 16 14 12 7 6 7 6 6 11 14 14 10 8 5 2 1 3 1 2 4 3 6 8 6 7 5 1 3 0 3 9 8 2 3 4 2 0 3 6 5 2 3 1 3 4 6 6 5 4 4 5 6 4 2 2 6 8 4 1 2 1 2 4 3 1 0 5 6 3 6 7 5 8 12 7 6 12 12 10 9 8 9 8 8
22 20 20 20 19 18 11 5 8 10 4 6 14 18 14 11 9 4 1 1 4 3 4 2 1 5 8 7 7 6 3 3 4 4 4 4 2 1 2 6 3 1 4 4 2 2 4 4 3 5 6 5 5 3 5 9 5 1 1 1 4 4 4 4 2 4 4 5 2 4 2 7 7 5 5 6 10 13 11 11 13 12 10 8 7 7 6 6
24 23 22 23 23 19 11 7 13 12 4 5 16 20 14 11 7 2 2 3 2 3 4 1 1 3 4 4 4 2 1 1 4 3 1 2 2 1 2 7 7 6 5 5 5 1 3 6 7 7 5 5 5 0 4 11 5 1 1 2 4 3 3 3 2 3 1 5 5 5 6 5 7 2 2 2 6 10 12 12 13 12 9 5 5 6 4 3
25 26 25 25 25 20 12 8 11 10 6 10 19 20 15 10 5 2 1 3 1 3 2 2 4 2 3 4 2 2 2 2 1 1 1 2 2 2 2 4 4 6 3 2 3 1 1 2 3 6 5 4 3 4 1 7 3 3 5 5 6 5 4 3 1 1 1 5 5 7 8 6 7 3 5 1 4 8 9 9 10 10 8 4 3 4 2 1
26 28 27 27 27 22 14 8 10 9 8 13 19 19 14 7 3 3 3 4 2 2 2 2 2 3 8 10 3 1 2 2 2 3 2 1 3 3 0 1 3 4 2 2 1 1 1 1 2 2 2 2 5 5 3 1 4 7 7 5 6 4 3 2 0 1 2 6 3 8 12 8 6 3 6 4 2 5 6 6 7 8 8 5 1 1 1 1
27 28 30 32 30 25 16 8 13 12 9 15 20 17 10 2 1 5 5 1 0 2 3 2 1 6 13 12 5 2 2 2 3 7 5 3 3 3 3 3 3 3 1 3 2 1 0 1 1 0 1 3 6 6 5 4 4 4 3 4 3 2 1 1 1 1 5 7 1 3 6 8 8 4 3 2 2 5 6 5 7 8 7 2 2 1 0 0
25 29 32 34 32 29 19 9 14 16 11 17 20 10 4 2 1 5 4 2 1 4 5 3 2 7 11 7 3 5 4 2 4 6 5 5 6 7 7 7 7 4 5 7 4 2 2 2 2 1 0 3 5 6 5 2 1 2 3 5 4 3 2 3 3 2 5 5 1 2 1 5 10 7 7 8 8 9 9 7 8 8 8 4 3 2 0 0
19 28 35 36 33 32 23 13 16 17 16 20 15 2 1 4 6 8 6 3 1 1 3 4 3 6 10 7 4 5 2 1 5 4 1 3 5 7 6 4 6 3 3 6 5 3 3 1 2 4 2 4 7 7 5 4 5 7 7 7 6 4 3 5 3 1 5 4 1 2 3 5 7 6 13 19 16 13 9 8 9 8 10 7 2 2 1 1
9 21 35 39 35 33 27 18 18 21 23 20 8 2 4 7 8 10 10 5 1 3 2 4 6 5 6 4 3 6 3 2 7 4 2 4 5 7 6 5 6 2 2 3 4 6 7 4 6 9 4 6 10 5 2 5 6 6 3 2 5 5 3 4 3 3 5 3 1 3 2 5 3 0 6 12 11 8 5 6 8 9 11 8 3 3 4 4
4 12 26 34 33 33 32 24 22 26 26 15 6 7 9 9 9 11 10 5 3 2 3 4 8 7 4 1 1 3 2 2 5 4 4 6 6 7 8 8 10 6 3 5 3 3 5 4 3 3 1 8 9 2 3 5 4 3 1 0 4 3 2 1 2 0 1 4 3 4 3 5 3 3 4 5 6 5 4 5 7 10 12 8 7 6 5 5
4 6 14 21 24 29 34 29 26 28 22 9 6 10 11 12 9 7 6 5 5 7 8 5 4 5 5 2 1 3 1 1 5 4 3 4 3 6 7 6 9 10 8 6 2 2 2 2 2 2 1 3 3 0 2 1 2 4 3 4 2 1 1 2 1 2 1 5 5 4 6 6 4 6 8 10 10 7 5 6 9 11 11 8 8 7 4 4
5 5 8 12 18 24 31 31 30 29 17 5 9 10 10 10 5 2 5 5 7 11 11 6 5 5 7 5 4 6 3 2 5 5 4 4 3 7 8 5 7 14 13 6 1 2 3 1 1 1 2 1 2 1 2 3 1 4 4 5 3 2 1 2 4 1 2 7 4 3 7 8 5 5 3 6 8 9 9 11 11 11 10 8 8 6 5 5
5 5 5 11 19 22 28 32 31 24 10 5 11 10 7 6 1 3 3 3 8 11 8 7 7 6 8 7 6 9 7 4 7 6 5 5 5 8 11 6 6 15 15 5 1 1 3 3 0 1 1 1 1 2 3 2 1 1 1 3 2 2 3 4 4 4 4 5 4 3 6 8 9 7 3 6 8 9 11 11 12 14 12 8 7 6 5 5
4 3 3 10 19 22 29 33 25 14 6 7 11 9 4 5 1 3 1 0 5 10 9 9 7 4 6 7 6 9 9 7 9 8 6 6 5 6 12 10 6 12 15 9 4 2 3 5 3 1 2 1 2 5 7 5 2 2 0 2 1 2 3 3 3 2 4 4 4 4 5 8 8 7 7 10 11 11 11 9 10 13 12 9 6 5 4 4
2 2 2 7 18 25 32 30 16 7 7 8 9 6 3 3 2 2 1 1 1 5 6 9 8 5 6 6 5 7 8 7 9 9 6 8 7 5 10 11 5 7 12 12 7 2 3 4 3 1 1 2 5 6 8 10 8 5 6 7 4 1 0 2 2 0 2 3 3 4 7 10 4 6 8 10 10 12 12 9 8 8 8 8 7 6 4 3
2 3 2 5 20 31 29 18 8 6 6 4 6 7 4 2 3 6 3 2 3 1 1 3 7 7 6 7 6 5 6 6 8 7 5 8 10 5 7 11 8 8 9 9 8 6 5 4 4 4 4 6 4 1 3 6 7 7 8 9 10 8 5 4 4 2 1 3 3 2 8 10 2 5 6 8 8 10 10 8 6 5 6 7 6 7 6 4
3 4 2 7 25 32 19 6 4 5 3 2 3 4 4 2 2 5 4 1 2 2 2 2 3 5 5 7 6 6 7 6 8 8 6 8 12 7 6 9 11 14 11 7 7 6 3 2 4 4 4 4 1 3 2 2 1 1 2 4 7 7 7 7 6 4 3 3 2 0 7 10 2 3 3 4 4 4 4 4 5 5 5 4 4 5 5 4
4 4 2 11 30 29 10 4 6 5 2 2 2 2 4 4 3 3 5 5 3 1 1 1 1 4 5 4 5 7 8 7 8 10 7 7 9 6 5 9 12 13 9 5 3 3 3 1 5 4 1 1 2 2 1 2 1 2 2 1 5 8 9 5 2 3 5 5 4 3 7 11 2 2 0 1 1 1 1 4 6 4 3 3 5 5 4 3
3 2 1 12 32 27 8 5 7 6 4 4 3 6 6 4 5 6 7 8 7 3 3 3 3 3 2 2 4 7 10 8 8 11 9 6 5 2 5 11 13 12 8 6 6 7 5 4 5 5 4 3 3 3 3 2 3 4 4 5 9 12 8 2 1 2 4 10 12 7 9 11 1 3 1 1 0 3 3 4 5 5 4 4 5 5 4 3
2 2 1 8 23 20 8 4 5 6 8 7 5 8 8 5 5 8 7 6 6 4 4 4 2 1 0 1 2 4 9 10 8 8 8 6 2 2 2 9 13 11 6 3 6 8 7 6 7 8 8 8 8 7 5 5 5 4 6 9 12 14 12 6 4 5 7 13 14 9 11 13 3 4 2 2 1 4 5 4 3 5 7 6 4 3 3 4
3 4 2 4 8 8 6 3 3 5 8 9 6 7 10 8 4 5 7 6 5 5 4 2 1 2 1 2 2 3 7 11 7 3 5 5 2 1 2 5 10 12 6 4 6 7 3 4 10 14 14 13 11 7 4 9 9 9 10 12 13 15 16 11 6 8 12 12 10 12 17 21 14 6 6 4 4 5 5 4 5 7 8 6 4 4 4 5
3 4 5 4 2 4 6 6 6 6 7 9 7 6 12 13 7 4 6 7 5 7 7 3 4 6 5 6 6 5 6 8 7 4 4 4 1 1 1 2 7 10 6 4 5 6 2 4 12 17 18 18 17 10 8 12 13 15 15 15 15 16 17 15 13 16 16 10 10 16 18 19 23 15 9 7 6 5 5 6 8 8 6 5 4 5 6 6
4 3 3 2 2 4 6 7 9 10 9 10 6 5 11 14 11 7 7 6 4 5 6 4 8 13 12 11 10 7 6 7 7 8 7 5 2 0 1 1 4 6 5 3 4 4 3 6 11 14 17 19 20 13 9 10 10 13 16 17 19 19 19 20 21 22 19 11 12 20 19 18 23 21 13 9 8 7 8 8 7 5 4 4 5 6 7 8
4 2 2 1 1 3 2 2 7 10 11 10 8 7 11 13 14 11 7 6 4 6 7 7 12 15 14 12 9 7 8 8 6 8 8 7 5 3 2 3 2 1 2 1 2 0 2 7 8 9 12 17 20 13 8 9 7 6 10 13 16 19 23 24 23 22 21 16 16 21 22 21 21 16 10 6 6 7 8 6 4 4 5 7 7 7 8 9
4 2 2 1 1 2 1 2 5 7 7 7 7 8 10 13 15 12 8 8 8 7 10 13 15 13 13 13 10 10 12 11 10 10 8 9 7 4 4 4 2 2 3 2 2 2 3 6 3 3 6 12 18 14 6 6 6 5 5 7 11 17 22 23 18 15 16 19 20 21 22 22 17 10 9 7 5 6 7 7 7 7 8 9 9 9 9 9
4 1 1 2 3 4 2 2 4 5 5 6 5 5 8 13 14 11 8 9 10 9 12 18 19 12 9 11 12 15 16 13 12 9 5 7 6 4 4 3 4 4 3 4 2 0 2 3 0 3 6 11 16 14 6 5 4 5 6 10 16 18 16 14 12 14 17 20 21 19 17 18 13 8 11 9 5 8 10 9 8 9 10 11 11 10 10 10
8 1 1 1 3 5 4 3 5 5 5 5 6 6 6 8 8 9 7 6 10 12 12 15 16 9 7 11 15 18 15 11 10 6 3 4 3 2 3 3 5 5 6 5 3 2 4 4 2 4 7 12 15 10 6 6 3 7 12 19 24 20 12 9 13 19 20 17 15 14 14 17 15 13 15 10 6 8 11 10 11 14 14 13 12 11 11 10
Wind_Direction
185 177 176 162 157 154 156 164 168 174 183 180 176 179 181 182 180 178 176 177 179 182 181 176 180 181 182 192 196 201 176 154 151 142 143 129 119 121 113 104 96 91 88 129 167 169 133 104 112 130 116 68 11 337 81 23 9 252 188 189 202 173 181 178 181 178 110 161 163 170 189 199 178 165 165 167 204 202 181 212 216 227 233 223 138 117 150 160
192 187 173 165 162 158 164 166 170 181 185 179 182 184 185 188 185 184 182 180 179 180 179 174 179 176 185 196 184 194 176 157 145 112 121 139 129 124 114 105 90 85 92 110 160 179 166 125 122 138 119 82 352 337 175 350 343 247 121 214 214 162 141 170 175 158 351 185 158 163 188 214 196 156 160 204 195 183 223 215 206 239 231 203 180 173 159 164
195 192 170 170 170 162 164 167 169 177 181 178 184 184 187 194 190 188 188 185 179 177 178 175 175 177 190 191 185 205 175 156 146 102 128 141 131 124 114 103 92 88 94 98 127 147 151 144 143 142 99 81 34 355 149 9 331 71 197 225 188 121 99 102 175 142 2 313 158 157 160 226 204 138 162 210 201 189 224 223 205 229 231 201 169 166 163 169
192 185 176 176 173 168 161 169 172 166 167 175 187 189 190 192 189 189 187 187 183 178 178 177 175 178 185 185 192 184 156 164 166 143 148 141 130 123 109 101 99 90 91 103 107 108 121 126 122 103 96 103 52 348 84 18 314 122 253 256 73 76 123 117 189 119 25 321 168 144 146 202 147 135 191 195 207 218 228 228 222 232 233 197 157 160 168 174
197 182 184 180 172 173 162 168 172 162 161 178 190 192 192 190 187 188 186 190 187 179 177 180 179 179 182 184 191 177 165 179 153 127 148 144 130 120 107 98 92 88 97 117 106 113 122 112 106 83 74 107 96 131 80 16 334 109 23 359 59 259 90 97 138 107 90 336 154 150 167 181 124 176 212 206 223 233 232 223 227 241 249 146 153 163 167 179
202 189 188 182 176 174 165 170 169 162 164 180 189 191 194 189 185 187 187 190 189 184 181 183 183 182 182 176 183 195 211 200 128 137 148 144 132 120 106 94 85 84 98 142 127 127 124 106 133 116 85 89 61 89 83 9 306 150 110 106 125 342 39 89 92 147 192 192 170 172 166 131 160 209 208 222 236 244 57 65 259 286 6 64 152 164 173 186
198 194 191 185 181 173 170 180 170 164 168 178 181 186 195 190 190 192 187 187 187 186 184 184 186 186 179 156 132 151 213 21 111 153 149 144 134 118 100 90 79 79 139 164 152 140 127 128 130 123 99 98 89 90 81 30 279 250 126 142 164 20 359 51 86 151 199 213 166 135 156 166 205 216 83 235 244 245 104 91 3 342 25 178 175 178 190 192
198 198 195 190 186 179 177 179 172 172 178 181 178 181 192 190 189 190 188 186 182 185 185 184 183 184 180 169 134 118 120 74 153 155 148 146 133 115 103 91 76 104 143 134 143 157 154 122 130 172 104 92 137 115 123 167 99 57 124 145 153 102 5 67 133 164 186 230 135 172 187 196 225 217 287 245 246 242 204 158 217 316 163 203 207 201 200 196
204 202 196 195 191 187 187 180 174 176 182 185 178 175 183 185 186 189 189 184 181 183 183 182 180 180 178 168 151 167 143 103 163 155 148 149 128 109 111 101 100 139 120 94 104 154 175 158 150 198 117 98 151 120 236 222 94 64 112 135 134 102 67 112 160 153 189 192 168 209 192 193 357 4 259 246 249 261 158 192 179 206 213 215 217 214 205 202
217 211 197 199 195 191 191 185 179 177 185 186 175 172 179 183 186 187 185 182 181 181 181 182 175 176 176 160 168 183 150 133 164 157 152 149 125 111 118 111 110 125 105 80 80 87 172 166 144 160 114 104 146 105 314 288 92 85 102 104 92 72 66 105 156 113 239 146 185 239 217 350 33 267 250 236 12 24 201 206 181 219 229 227 223 222 215 215
222 211 198 202 200 196 194 187 181 178 181 176 169 174 173 170 178 182 180 178 177 177 180 176 170 171 163 175 205 182 120 140 163 160 155 147 132 127 119 115 111 112 104 81 72 75 101 131 133 144 117 128 141 94 37 67 92 84 123 124 80 60 107 73 154 90 318 154 164 266 253 272 112 235 243 103 56 328 226 220 206 228 235 234 232 228 223 227
208 197 191 195 196 196 194 186 179 172 168 165 169 164 146 145 159 169 170 169 170 172 172 168 168 161 136 156 229 136 123 139 157 158 156 147 137 131 119 116 108 102 109 95 84 97 110 127 128 94 62 162 151 105 108 117 87 104 150 156 106 174 169 123 123 100 287 179 155 238 255 237 201 228 232 102 102 83 261 245 225 232 238 237 235 234 231 229
198 195 195 194 197 196 189 185 180 175 167 165 162 143 133 136 142 155 162 162 166 165 165 168 167 162 156 149 101 125 132 134 150 155 153 147 133 121 116 117 107 99 107 105 106 112 115 124 109 90 73 141 122 117 131 110 307 137 130 318 138 215 194 127 47 247 228 168 151 232 264 237 203 229 218 99 143 232 258 250 234 232 236 238 232 236 238 229
193 196 196 196 204 199 191 191 188 188 184 174 152 136 133 137 137 145 155 157 161 162 164 167 165 165 167 128 128 148 146 139 150 151 151 147 130 113 111 114 108 102 98 98 102 103 103 104 102 103 67 31 105 147 128 91 354 115 138 302 178 242 162 118 96 213 206 161 134 225 255 262 224 228 132 76 215 231 259 256 245 237 232 239 234 237 243 232
199 200 195 194 199 201 206 204 200 205 195 169 145 137 136 142 142 143 151 152 153 157 160 160 160 162 153 133 155 170 163 155 156 156 155 149 133 115 112 114 107 101 96 94 95 91 87 91 91 97 72 20 152 152 116 92 70 57 233 185 132 246 173 115 120 230 229 96 170 220 245 263 262 266 65 41 153 191 257 263 258 250 241 239 236 239 246 241
204 208 200 190 193 207 212 202 207 208 183 154 140 137 138 142 144 145 147 144 144 146 145 152 161 171 178 147 142 171 176 174 171 168 161 152 143 131 123 113 102 96 96 91 90 81 63 67 64 23 79 162 174 143 126 153 148 68 272 215 144 224 266 93 119 348 308 54 207 231 261 269 254 333 62 64 134 172 259 269 265 255 246 242 240 241 244 248
198 202 192 183 194 207 192 164 167 171 154 139 134 132 135 139 140 140 138 136 136 131 127 139 154 177 183 128 159 189 172 174 175 173 167 158 150 142 129 106 95 98 96 88 82 65 36 51 108 272 69 119 155 154 169 205 213 172 246 256 218 228 263 260 135 111 304 260 225 226 248 257 253 255 246 201 158 214 259 266 267 261 252 243 240 244 244 247
197 194 183 181 193 197 175 151 139 144 140 134 132 126 123 124 127 129 130 129 117 103 106 111 150 205 202 164 177 147 125 145 155 161 166 156 150 148 134 109 118 114 105 85 52 25 15 35 249 157 115 134 164 192 200 191 201 167 180 212 218 220 232 256 251 138 175 239 236 227 241 257 259 257 261 249 190 228 261 264 267 264 257 250 245 245 244 242
201 196 188 184 186 189 188 168 158 154 143 135 130 119 110 106 111 120 125 132 128 118 144 170 172 185 169 148 115 100 113 129 141 149 151 149 148 140 112 106 118 110 129 160 63 30 7 119 152 175 182 193 188 203 204 106 103 127 156 196 188 239 246 240 205 110 212 248 246 241 249 262 265 262 267 264 207 222 260 263 265 261 254 250 245 245 243 241
201 197 190 187 185 190 191 175 174 167 153 145 137 125 117 119 114 124 151 232 210 113 49 141 154 100 83 107 115 118 115 111 124 149 151 152 145 125 92 77 102 99 137 187 106 65 278 186 190 214 215 198 188 172 101 93 96 108 124 166 188 259 271 220 119 87 220 255 255 245 254 267 272 271 270 270 253 245 256 256 257 254 247 244 243 246 242 241
198 193 190 190 187 189 196 188 180 173 165 161 156 150 157 169 163 147 172 243 225 82 26 33 47 73 87 117 142 139 120 92 77 146 158 159 155 150 138 128 159 155 136 94 104 115 224 215 221 225 132 108 144 125 112 113 103 113 156 205 217 241 267 268 103 139 168 231 263 253 256 264 267 271 271 269 261 257 255 251 253 253 249 245 245 247 244 244
199 191 185 189 190 189 194 194 192 188 180 174 178 216 267 177 148 122 141 206 183 133 68 65 52 93 83 125 164 159 141 123 116 172 171 162 177 189 163 166 185 175 127 139 142 147 199 229 225 156 92 88 100 128 142 131 124 137 144 188 247 242 273 282 102 115 174 217 268 275 271 265 263 266 264 259 253 254 255 251 256 261 260 256 250 248 245 247
203 194 184 184 188 186 189 202 208 202 190 185 200 233 197 152 134 124 127 139 148 134 158 190 220 170 124 172 186 175 181 159 152 188 187 170 173 189 158 172 182 141 151 185 187 182 194 237 207 130 130 120 103 140 150 133 164 187 168 193 236 156 287 264 110 112 175 214 299 295 283 268 255 253 254 254 252 257 260 257 260 259 255 256 256 257 254 251
202 198 190 182 179 182 189 202 207 207 200 199 217 211 168 151 145 147 134 62 194 183 179 215 239 187 164 159 177 179 189 179 165 176 184 178 151 149 174 165 150 146 181 196 199 209 199 74 113 139 155 143 126 156 171 177 200 205 208 217 228 219 225 250 338 336 212 190 317 291 284 265 239 243 249 253 254 260 261 261 263 252 244 251 257 262 257 252
199 197 193 182 176 178 181 190 201 203 195 205 218 193 167 162 156 158 138 23 233 150 53 212 204 202 180 138 160 168 109 195 220 167 175 180 147 143 157 106 170 188 180 168 195 235 221 109 132 144 153 149 144 170 187 194 207 217 216 222 233 245 240 238 344 330 275 227 141 305 299 280 188 226 246 252 250 255 246 245 260 256 246 243 248 257 252 245
199 195 191 182 174 168 168 192 208 186 177 213 208 178 168 167 150 152 124 31 249 184 138 178 175 185 172 144 148 140 129 208 342 101 160 177 140 127 151 131 293 203 158 143 191 250 193 123 137 144 151 154 162 192 194 191 210 229 209 222 231 242 266 235 245 279 282 291 210 293 300 288 250 209 226 250 259 263 257 249 258 257 253 242 238 250 246 241
202 195 190 180 172 168 168 181 174 165 175 222 194 173 167 162 145 150 144 306 259 172 129 172 206 172 162 160 163 153 190 178 102 104 146 161 143 65 179 166 147 158 145 145 219 221 150 157 151 137 143 156 180 201 187 187 200 200 82 176 189 186 208 212 206 233 281 324 277 170 192 279 276 218 218 247 255 267 270 266 266 261 255 249 247 254 247 243
206 199 189 180 177 182 188 167 157 171 212 192 177 173 164 157 154 149 192 240 267 120 122 154 120 127 128 147 159 127 324 107 125 158 48 72 137 35 207 186 174 168 158 183 215 209 144 182 179 162 161 180 188 200 171 181 190 17 92 116 129 147 172 159 194 234 311 323 280 168 157 256 275 196 130 257 245 260 265 262 267 268 262 251 252 260 255 255
210 202 193 183 182 191 202 190 175 188 200 163 168 174 162 159 172 92 142 225 208 94 99 127 126 106 112 137 122 60 56 27 67 159 75 90 99 38 196 189 155 143 145 230 226 31 35 220 203 177 185 191 136 34 195 185 167 133 138 101 91 88 80 101 228 200 97 283 256 165 170 247 282 196 148 171 234 243 253 258 264 272 278 272 258 256 249 262
212 205 196 184 182 189 192 206 211 192 172 168 171 169 158 160 176 139 181 228 189 97 72 137 161 144 150 154 155 14 90 41 65 116 97 109 71 34 99 111 83 125 128 320 319 56 48 11 305 233 195 148 108 68 11 47 114 144 144 104 92 90 73 84 13 69 251 264 232 167 184 223 274 212 164 177 202 220 233 246 258 270 280 277 236 220 234 244
213 208 198 187 185 187 179 203 214 188 169 175 166 158 156 133 104 175 194 237 98 143 139 151 149 146 159 162 162 170 125 64 160 154 144 158 124 102 153 147 107 121 192 245 219 105 65 163 191 217 71 113 113 86 44 51 122 154 147 131 137 142 139 173 171 141 239 251 235 160 196 224 244 224 181 208 228 238 231 229 248 262 274 267 123 138 250 222
212 210 201 192 190 188 185 201 195 178 170 168 159 153 165 128 196 219 203 113 154 188 161 148 173 166 166 161 144 156 142 110 179 176 155 165 174 172 187 187 165 168 225 217 190 112 200 206 127 86 275 191 148 108 78 68 207 211 163 163 193 214 206 232 213 184 240 251 40 91 189 247 249 248 263 261 246 238 229 227 247 262 271 258 144 164 203 103
210 210 202 195 193 192 194 197 182 174 164 158 154 107 100 170 211 219 202 175 182 171 114 106 125 160 161 161 157 152 132 129 170 186 150 159 189 195 213 219 179 191 231 186 167 165 200 248 140 160 195 220 193 165 152 180 196 195 178 174 194 201 216 233 209 223 265 270 62 131 180 249 264 254 243 242 241 234 221 225 242 256 266 265 160 155 242 266
206 207 201 197 195 198 202 195 184 177 161 153 151 113 164 205 221 210 206 204 81 44 58 108 118 133 161 171 171 163 161 179 167 164 161 167 195 207 217 231 211 209 52 154 176 188 209 244 182 172 156 177 197 208 149 140 168 193 184 178 205 198 206 230 221 246 275 300 162 159 187 230 236 41 233 241 253 251 234 239 250 258 261 265 261 220 237 253
185 201 203 199 195 199 202 196 189 178 163 153 162 171 185 215 223 217 209 173 112 94 64 96 121 135 175 308 323 197 199 201 169 154 171 179 196 203 199 206 202 187 155 187 193 168 219 267 165 149 120 167 182 226 68 109 154 189 70 260 234 217 181 255 300 259 328 320 252 193 231 239 232 298 263 252 268 251 240 255 255 259 258 258 261 243 222 235
168 183 204 202 199 198 196 196 189 173 160 151 169 178 201 214 212 215 194 140 139 142 122 119 128 140 181 194 232 226 282 109 160 168 199 201 234 218 206 208 194 188 187 187 164 137 200 293 54 40 336 169 181 281 109 159 187 155 166 202 223 335 151 198 257 87 109 269 257 204 249 271 286 269 230 219 237 230 225 247 241 248 253 252 257 252 230 230
184 183 199 208 211 202 194 193 182 165 156 166 186 190 207 213 210 152 162 137 131 140 139 162 180 170 178 181 187 195 197 137 164 191 190 178 242 212 203 225 186 191 204 200 198 212 195 224 46 80 191 142 343 348 83 5 17 134 182 188 139 30 319 217 237 214 194 250 265 222 253 270 270 265 206 185 230 235 231 238 238 242 248 246 250 250 239 233
194 197 222 221 214 203 194 189 174 160 154 178 200 213 212 207 224 78 160 137 128 150 174 189 187 185 182 182 182 177 179 168 169 194 184 172 229 196 179 201 196 196 206 202 236 231 194 219 214 37 243 84 32 211 154 50 9 66 192 168 141 216 206 184 215 231 219 244 269 243 260 264 233 230 224 186 205 225 228 229 233 239 236 230 237 239 231 227
196 208 258 227 212 201 191 183 168 156 161 178 202 223 218 204 226 54 90 163 146 168 193 196 183 186 188 180 159 159 184 186 163 180 194 181 214 190 173 186 197 196 194 183 193 161 166 228 219 70 301 55 131 214 196 168 126 24 142 168 240 273 221 179 178 229 230 240 278 282 280 264 221 195 213 210 199 208 220 219 224 232 228 218 221 231 228 217
192 232 269 209 201 193 184 177 167 163 172 184 207 214 192 200 241 290 304 343 195 188 200 199 185 179 183 174 156 162 192 201 172 183 202 186 200 209 185 182 164 172 180 180 199 167 143 228 219 111 296 213 189 208 200 180 167 177 192 184 185 182 309 247 193 196 252 239 265 284 277 268 221 148 190 203 193 203 215 217 217 225 227 219 210 212 221 211
173 227 258 198 188 180 174 174 178 174 167 192 220 214 206 189 219 242 257 8 345 306 295 209 192 189 171 167 184 178 178 195 187 194 209 196 206 221 189 180 152 133 153 176 204 200 173 203 192 156 192 207 199 214 229 201 178 184 194 191 189 173 160 202 200 174 250 250 231 242 273 271 227 134 189 190 185 200 209 213 210 210 220 222 212 201 200 198
190 214 209 183 180 171 165 183 187 159 171 208 202 202 207 205 213 225 224 299 331 335 344 316 216 202 178 173 185 168 163 186 190 201 223 213 214 215 186 179 159 147 151 169 198 193 143 155 198 190 197 207 127 42 335 301 337 264 237 203 193 178 178 198 204 187 180 232 263 312 275 273 240 125 186 180 186 197 190 205 212 208 207 211 229 218 198 196
212 212 150 175 177 169 161 216 182 157 206 214 189 196 199 214 220 198 198 208 206 163 210 272 233 214 204 178 162 162 176 190 190 199 219 228 223 205 164 171 161 154 160 162 168 152 102 150 211 212 188 99 71 81 87 33 42 243 260 179 192 201 203 204 217 189 167 193 210 189 247 261 275 67 341 58 325 275 171 206 220 231 235 200 212 221 206 202
218 218 26 180 180 175 176 210 184 184 193 168 196 212 207 227 221 205 203 201 197 185 195 219 229 230 219 157 157 181 187 194 203 205 211 225 229 151 149 171 167 167 180 180 170 166 167 190 202 206 213 200 191 202 199 167 182 223 218 191 203 207 195 122 32 211 207 214 209 204 244 254 278 54 275 141 166 253 220 206 214 226 247 232 209 206 206 214
191 209 318 192 187 185 200 213 179 193 186 164 185 202 199 217 219 213 213 202 200 203 203 218 214 165 114 143 157 189 197 212 222 209 211 225 232 39 187 183 179 190 199 172 164 164 172 190 185 193 216 215 209 213 203 167 163 211 215 195 203 202 186 179 198 204 228 229 214 208 244 254 248 107 193 204 182 238 220 198 218 228 228 231 221 202 204 214
187 205 195 193 201 204 222 223 181 199 187 175 186 191 193 206 203 194 206 206 206 204 213 235 172 152 170 164 171 193 211 232 239 199 212 225 195 21 226 189 199 208 188 119 146 153 151 206 194 200 215 221 228 230 141 129 154 197 206 188 193 201 194 196 209 212 225 235 228 219 235 255 260 203 178 212 213 226 226 194 214 236 228 219 215 214 219 224
211 212 187 178 209 221 226 222 208 210 187 178 186 178 190 206 201 165 193 208 199 198 213 230 197 198 200 193 210 215 205 227 240 228 229 226 212 351 93 174 225 219 184 135 157 149 128 220 207 212 221 228 239 235 155 147 174 198 202 188 189 198 195 197 213 222 222 225 241 234 227 247 261 247 215 215 209 217 241 221 218 233 231 219 211 209 218 228
215 222 203 190 211 216 223 217 205 210 195 181 189 182 186 201 202 187 195 201 191 193 204 220 215 213 211 206 212 218 206 212 226 230 234 225 202 167 95 194 237 217 184 174 184 156 175 224 213 217 226 233 242 235 178 175 192 195 199 196 191 193 193 201 217 225 220 214 239 245 232 232 253 254 238 221 203 201 219 222 226 243 242 230 220 211 215 220
216 247 261 295 252 212 216 179 188 207 202 185 191 197 190 199 204 202 190 173 190 206 195 210 222 216 215 215 210 213 215 211 214 222 226 223 199 166 195 226 227 189 120 163 259 38 201 225 218 214 226 238 245 239 184 190 218 209 207 206 196 192 195 204 216 222 222 224 238 249 248 244 249 255 256 239 201 197 215 219 221 235 235 229 223 221 223 219
207 229 210 186 219 186 71 99 163 193 205 193 201 205 197 203 204 200 186 175 186 194 191 214 228 216 210 216 214 223 223 216 221 223 215 222 217 185 202 214 142 68 73 116 310 340 231 226 210 177 222 242 247 242 195 180 216 226 224 220 212 209 207 210 217 218 221 232 241 247 254 257 253 255 275 268 192 188 220 224 222 231 235 233 228 224 227 228
206 357 120 172 214 194 177 156 155 177 200 196 207 209 204 212 205 192 194 196 194 187 184 208 223 218 204 208 214 227 227 220 229 229 195 211 222 191 206 203 119 121 147 166 176 119 220 240 90 150 217 240 242 234 194 152 200 236 240 229 221 219 213 210 217 220 218 226 238 246 253 259 256 251 260 252 184 192 220 219 225 233 229 230 230 224 225 228
203 274 38 179 229 208 187 177 177 198 210 190 194 199 198 212 203 185 195 211 213 213 201 205 216 213 199 209 217 226 227 221 231 230 160 185 205 163 184 172 136 148 163 167 165 149 185 215 219 185 211 241 244 224 155 133 193 240 236 229 227 224 214 204 217 226 225 222 230 235 237 247 252 253 254 245 187 202 221 217 226 233 231 230 230 227 227 229